OBERSTADN Weather Reports


time (UTC)temp
F
wind
direction
speed
knots
gust
knots
rain 1hr
in
rain 24hr
in
rain mn
in
humidity
%
barometer
mb
20260507040216 44 348 2.6 0.0 0.00 0.00 0.00 92 1012.0
20260507033211 44 249 2.6 0.0 0.00 0.00 0.00 92 1011.7
20260507030211 44 161 3.5 0.0 0.00 0.00 0.00 92 1011.4
20260507023211 44 190 5.2 0.0 0.00 0.00 0.00 92 1011.4
20260507020211 44 202 7.0 0.0 0.00 0.00 0.00 92 1011.3
20260507013212 44 199 7.0 0.0 0.00 0.00 0.00 92 1011.3
20260507010211 44 233 6.1 0.0 0.00 0.00 0.00 91 1011.0
20260507003209 44 200 2.6 0.0 0.00 0.00 0.00 91 1011.0
20260507000209 45 219 4.3 0.0 0.00 0.00 0.00 91 1010.9
20260506233209 45 215 4.3 0.0 0.00 0.00 0.00 91 1010.9
20260506230209 46 171 5.2 0.0 0.00 0.00 0.00 91 1010.8
20260506223209 46 198 4.3 0.0 0.00 0.00 0.00 91 1010.8
20260506220209 47 246 6.1 0.0 0.00 0.00 0.00 91 1010.6
20260506213209 47 178 4.3 0.0 0.00 0.00 0.26 90 1010.4
20260506210210 47 251 7.0 0.0 0.00 0.00 0.26 90 1010.2
20260506203210 48 206 7.8 0.0 0.00 0.00 0.26 90 1010.4
20260506200210 48 220 10.4 0.0 0.00 0.00 0.26 90 1010.1
20260506193215 48 283 7.0 0.0 0.00 0.00 0.26 89 1009.7
20260506190211 49 162 12.2 0.0 0.00 0.00 0.26 89 1009.2
20260506183209 50 236 4.3 0.0 0.00 0.00 0.26 90 1008.6
20260506180216 50 211 7.0 0.0 0.00 0.00 0.26 90 1008.8
20260506173210 50 180 9.6 0.0 0.00 0.00 0.26 90 1008.5
20260506170215 50 206 8.7 0.0 0.00 0.00 0.26 90 1008.0
20260506163210 50 254 13.0 0.0 0.00 0.00 0.25 89 1007.8
20260506160210 50 247 13.0 0.0 0.00 0.00 0.23 88 1007.7
20260506153210 53 267 20.0 0.0 0.00 0.00 0.16 85 1007.4
20260506150210 59 205 19.1 0.0 0.00 0.00 0.13 77 1006.4
20260506143210 64 265 5.2 0.0 0.00 0.00 0.00 60 1005.4
20260506140210 65 99 5.2 0.0 0.00 0.00 0.00 59 1005.4
20260506133211 64 307 5.2 0.0 0.00 0.00 0.00 59 1005.6
20260506130211 64 257 5.2 0.0 0.00 0.00 0.00 60 1005.7
20260506123210 63 223 6.1 0.0 0.00 0.00 0.00 63 1005.5
20260506120210 63 121 1.7 0.0 0.00 0.00 0.00 64 1005.4
20260506113217 62 47 1.7 0.0 0.00 0.00 0.00 64 1005.7
20260506110210 60 331 3.5 0.0 0.00 0.00 0.00 70 1005.9
20260506100213 60 336 2.6 0.0 0.00 0.00 0.00 73 1006.5
20260506093211 59 61 2.6 0.0 0.00 0.00 0.00 73 1006.6
20260506090211 58 9 1.7 0.0 0.00 0.00 0.00 79 1006.4
20260506083211 56 340 4.3 0.0 0.00 0.00 0.00 80 1006.4
20260506080212 56 344 3.5 0.0 0.00 0.00 0.00 81 1006.4
20260506073211 55 274 4.3 0.0 0.00 0.00 0.00 82 1006.7
20260506070212 54 165 4.3 0.0 0.00 0.00 0.00 86 1006.9
20260506060210 50 119 1.7 0.0 0.00 0.00 0.00 93 1006.7
20260506050211 45 317 0.9 0.0 0.00 0.00 0.00 91 1007.0
20260506043211 45 309 4.3 0.0 0.00 0.00 0.00 90 1007.2